Location: Orangeville
(43.9200°N, 80.0943°W)
Time: 12:01:11
(UTC-05:00)

Tiangong - Pass Details

Date: 15 December 2021
Orbit: 383 x 386 km, 41.5° (Epoch: 19 January)

Event Time Altitude Azimuth Distance (km) Brightness Sun altitude
Rises 17:52:16 0° 265° (W) 2,278 6.6 -11.9°
Reaches altitude 10° 17:54:23 10° 261° (W) 1,421 5.3 -12.3°
Maximum altitude 17:57:31 54° 183° (S) 477 1.6 -12.8°
Enters shadow 17:59:39 18° 110° (ESE) 1,022 2.8 -13.2°
